Regional Weather Roundup
Issued by NWS Upton, NY

Current Version | Previous Version | Graphics & Text | Print | Product List | Glossary Off
Versions: 1 2 3 4 5 6 7 8 9 10 11 12 13 14 15 16 17 18 19 20 21 22 23 24 25 26 27 28 29 30 31 32 33 34 35 36 37 38 39 40 41 42 43 44 45 46 47 48 49 50

000
ASUS41 KOKX 040604
RWROKX

REGIONAL WEATHER ROUNDUP
NATIONAL WEATHER SERVICE NEW YORK NY
200 AM EDT FRI SEP 04 2015

NOTE: "FAIR" INDICATES FEW OR NO CLOUDS BELOW 12,000 FEET WITH NO
SIGNIFICANT WEATHER AND/OR OBSTRUCTIONS TO VISIBILITY.

NYZ071-072-176-178-NJZ106-104-040700-
NEW YORK CITY METRO AREA


CITY           SKY/WX    TMP DP  RH WIND       PRES   REMARKS
CENTRAL PARK   PTCLDY    81  66  60 VRB3      29.94R
LAGUARDIA APRT MOCLDY    80  67  64 N6        29.90R
KENNEDY INTL   MOCLDY    77  69  76 W3        29.91S
NEWARK/LIBERTY MOCLDY    79  66  64 N7        29.91R
BRNX BOT. GARD   N/A     77  66  69 N2        29.92F
TETERBORO      PTCLDY    79  65  62 CALM      29.90R
$$

NYZ177-179-078>081-040700-
LONG ISLAND NEW YORK

CITY           SKY/WX    TMP DP  RH WIND       PRES   REMARKS
FARMINGDALE    PTCLDY    75  69  81 CALM      29.91S
ISLIP          PTCLDY    74  70  87 CALM      29.90R FOG
SHIRLEY        PTCLDY    71  69  93 CALM      29.92R FOG
WESTHAMPTON    PTCLDY    67  65  93 CALM      29.92S FOG
MONTAUK POINT    N/A     72  69  90 CALM      29.93R
$$

NYZ052-065-067-040700-
HUDSON VALLEY

CITY           SKY/WX    TMP DP  RH WIND       PRES   REMARKS
WHITE PLAINS   PTCLDY    73  66  78 N5        29.93R
NEWBURGH       CLEAR     73  68  83 VRB6      29.97R
MONTGOMERY     CLEAR     70  66  87 NE5       29.96R
POUGHKEEPSIE   CLEAR     72  66  81 CALM      29.95R
ALBANY         PTCLDY    71  56  58 N8        29.98R
$$

NJZ001-105-106-008-010-013-015-019>022-104-040700-
NEW JERSEY

CITY           SKY/WX    TMP DP  RH WIND       PRES   REMARKS
NEWARK/LIBERTY MOCLDY    79  66  64 N7        29.91R
TETERBORO      PTCLDY    79  65  62 CALM      29.90R
CALDWELL       PTCLDY    75  67  76 NE3       29.93R
MORRISTOWN     PTCLDY    68  63  83 CALM      29.92S
SOMERVILLE     MOCLDY    72  67  84 CALM      29.90R
SUSSEX         MOCLDY    68  65  90 CALM      29.96R
ANDOVER          N/A     70  68  93 CALM      29.96R
TRENTON        MOCLDY    76  68  76 CALM      29.91R
MILLVILLE      PTCLDY    70  68  93 CALM      29.90S FOG
ATLANTIC CITY  CLEAR     69  66  90 CALM      29.90S FOG
WRIGHTSTOWN    CLEAR     69  68  97 E3        29.88S
TOMS RIVER     CLEAR     66  63  88 CALM      29.91S
BELMAR         PTCLDY    72  63  73 CALM      29.91S
$$

PAZ047>061-062-071-040700-
EASTERN PENNSYLVANIA

CITY           SKY/WX    TMP DP  RH WIND       PRES   REMARKS
PHILADELPHIA   CLOUDY    78  70  76 CALM      29.90S
ALLENTOWN      MOCLDY    71  66  84 N3        29.94R
SCRANTON       CLEAR     70  65  84 E5        29.98R
$$

CTZ002-004>006-009-010-012-RIZ004-006-007-MAZ004-011-015-040700-
SOUTHERN NEW ENGLAND
 IN CT

CITY           SKY/WX    TMP DP  RH WIND       PRES   REMARKS
BRADLEY INTL   PTCLDY    71  66  84 N7        29.93S
HARTFORD       CLEAR     75  68  78 N8        29.93R
DANBURY        CLEAR     66  62  87 CALM      29.95S
WTRBRY/OXFORD  CLEAR     73  63  68 NE12G17   29.96S
BRIDGEPORT     PTCLDY    76  69  79 N3        29.91S
MERIDEN        CLEAR     76  67  73 N5        29.93R
NEW HAVEN      CLEAR     70  65  84 CALM      29.91S
CHESTER        NOT AVBL
GROTON         CLEAR     72  71  97 NE3       29.91S FOG
WILLIMANTIC    CLEAR     71  67  87 CALM      29.94R

 IN RI

CITY           SKY/WX    TMP DP  RH WIND       PRES   REMARKS
PROVIDENCE     PTCLDY    74  67  78 NE6       29.93R
BLOCK ISLAND   CLOUDY    70  68  94 CALM      29.92S VSB 1/4
WESTERLY       MOCLDY    71  69  93 N5        29.93R FOG

 IN MA

CITY           SKY/WX    TMP DP  RH WIND       PRES   REMARKS
BOSTON         MOCLDY    72  69  90 N6        29.95S FOG
WORCESTER      CLEAR     70  65  84 N7        29.99R
WESTFIELD      CLEAR     70  66  87 N7        29.95S
PROVINCETOWN     N/A     68  64  88 NE7       29.94S
NANTUCKET        N/A    N/A N/A N/A MISG        N/A
$$

ANZ330-335-338-340-345-350-353-355-040700-
COASTAL MARINE OBSERVATIONS


STATION/POSITION TIME  SKY/WX   TEMP    WIND        PRES    VSBY  WAVE
                                AIR SEA DIR/SP/G                  HT/PER
                 (UTC)          (F)     (DEG/KT/KT) (MB)    (MI)  (FT/S)
NY HARB ENTRANCE 0450            78 78   CALM  /  2 1012.1          1/12
4S FIRE IS       NOT AVBL
20S FIRE ISLAND  0450            76 76   CALM  /  2 1012.2          1/ 7
GREAT SOUTH BAY  0500            78 80   20/  2/  2   N/A
23SW MTP         0550            74 74   CALM  /  2 1012.3          1/ 6
HUDSON CANYON    NOT AVBL
KINGS POINT      0500            77 76   30/  3/  4 1011.8
EXECUTION ROCKS  0500            76     350/  4/  6   N/A
CENTRAL LI SOUND NOT AVBL
EASTERN LI SOUND 0500            72 71   80/  4/  4   N/A
ROBBINS REEF     0500            80     270/  4/  4 1011.4
$$


>>>>>>>>>>>>>>>>>>>>>>>>>>>> KEY <<<<<<<<<<<<<<<<<<<<<<<<<<<
>                                                          <
>     SKY/WX - SKY CONDITION/PRESENT WEATHER               <
>     TMP    - TEMPERATURE IN FAHRENHEIT                   <
>     DP     - DEWPOINT IN FAHRENHEIT                      <
>     RH     - RELATIVE HUMIDITY IN PERCENT                <
>     WIND   - DIRECTION AND SPEED IN MPH                  <
>     PRES   - MEAN SEA LEVEL PRESSURE IN INCHES OF HG     <
>     WCI    - WIND CHILL INDEX                            <
>     VSB    - VISIBILITY IN MILES                         <
>     HX     - HEAT INDEX                                  <
>     TC     - TEMPERATURE IN CELSIUS                      <
>     VRB    - VARIABLE WIND DIRECTION                     <
>                                                          <
>>>>>>>>>>>>>>>>>>>>>>>>>>>> KEY <<<<<<<<<<<<<<<<<<<<<<<<<<<





USA.gov is the U.S. government's official web portal to all federal, state and local government web resources and services.